TimeAKDT,TemperatureF,Dew PointF,Humidity,Sea Level PressureIn,VisibilityMPH,Wind Direction,Wind SpeedMPH,Gust SpeedMPH,PrecipitationIn,Events,Conditions,WindDirDegrees,DateUTC
12:53 AM,50.0,46.0,86,30.25,10.0,Variable,3.5,-,N/A,,Clear,0,2012-10-08 08:53:00
1:53 AM,51.1,46.0,83,30.25,10.0,SSE,8.1,21.9,N/A,,Clear,160,2012-10-08 09:53:00
2:53 AM,50.0,46.0,86,30.24,10.0,South,6.9,-,N/A,,Clear,180,2012-10-08 10:53:00
3:53 AM,50.0,46.0,86,30.23,10.0,South,10.4,-,N/A,,Clear,190,2012-10-08 11:53:00
4:53 AM,50.0,46.0,86,30.22,10.0,South,5.8,-,N/A,,Clear,180,2012-10-08 12:53:00
5:53 AM,51.1,46.0,83,30.20,10.0,South,11.5,19.6,N/A,,Clear,190,2012-10-08 13:53:00
6:53 AM,50.0,46.0,86,30.20,10.0,South,9.2,-,N/A,,Clear,180,2012-10-08 14:53:00
7:53 AM,50.0,45.0,83,30.20,10.0,South,13.8,18.4,N/A,,Clear,190,2012-10-08 15:53:00
8:53 AM,50.0,45.0,83,30.20,10.0,South,6.9,-,N/A,,Clear,170,2012-10-08 16:53:00
9:53 AM,50.0,45.0,83,30.20,10.0,Variable,3.5,-,N/A,,Clear,0,2012-10-08 17:53:00
10:53 AM,52.0,45.0,77,30.20,10.0,Calm,Calm,-,N/A,,Clear,0,2012-10-08 18:53:00
11:53 AM,54.0,46.0,75,30.20,10.0,Variable,4.6,-,N/A,,Clear,0,2012-10-08 19:53:00
12:53 PM,55.0,45.0,69,30.20,10.0,South,6.9,-,N/A,,Clear,190,2012-10-08 20:53:00
1:53 PM,53.1,46.9,80,30.20,10.0,North,8.1,-,N/A,,Clear,10,2012-10-08 21:53:00
2:53 PM,54.0,46.9,77,30.19,10.0,Calm,Calm,-,N/A,,Clear,0,2012-10-08 22:53:00
3:53 PM,53.1,46.0,77,30.18,10.0,North,5.8,-,N/A,,Partly Cloudy,10,2012-10-08 23:53:00
4:45 PM,51.8,46.4,82,30.17,10.0,North,3.5,-,N/A,,Mostly Cloudy,350,2012-10-09 00:45:00
4:53 PM,52.0,46.0,80,30.17,10.0,Variable,4.6,-,N/A,,Mostly Cloudy,0,2012-10-09 00:53:00
5:41 PM,51.8,46.4,82,30.17,10.0,North,5.8,-,N/A,,Overcast,10,2012-10-09 01:41:00
5:53 PM,50.0,46.0,86,30.17,10.0,North,6.9,-,N/A,,Overcast,10,2012-10-09 01:53:00
6:53 PM,48.9,46.0,90,30.17,10.0,NNE,5.8,-,N/A,,Overcast,20,2012-10-09 02:53:00
7:53 PM,48.9,45.0,86,30.18,10.0,Calm,Calm,-,N/A,,Overcast,0,2012-10-09 03:53:00
8:53 PM,48.0,46.0,93,30.17,5.0,Calm,Calm,-,N/A,,Overcast,0,2012-10-09 04:53:00
9:53 PM,48.0,45.0,89,30.18,10.0,Calm,Calm,-,N/A,,Overcast,0,2012-10-09 05:53:00
10:53 PM,46.9,44.1,90,30.18,7.0,NNE,3.5,-,0.01,,Overcast,30,2012-10-09 06:53:00